Regional Weather Roundup
Issued by NWS

Home | Current Version | Previous Version | Graphics & Text | Print | Product List | Glossary On
Versions: 1 2 3 4 5 6 7 8 9 10 11 12 13 14 15 16 17 18 19 20 21 22 23 24 25 26 27 28 29 30 31 32 33 34 35 36 37 38 39 40 41 42 43 44 45 46 47 48 49 50
000
ASUS45 KSLC 271510
RWRUT

UTAH REGIONAL WEATHER ROUNDUP
NATIONAL WEATHER SERVICE SALT LAKE CITY UT
800 AM MST MON FEB 27 2017

UTZ001>011-023>025-271600-

NORTHERN UTAH

CITY           SKY/WX    TMP DP  RH WIND       PRES   REMARKS
BRIGHAM CITY     N/A     30  28  90 SW6       29.64R WCI  24
DUGWAY         SNOW      30  29  95 E2        29.62  VSB 1/2
HILL AFB       LGT SNOW  27  26  96 E6        29.64R VSB 5/8 WCI  21
LOGAN          CLOUDY    29  27  92 SW3       29.61F
OGDEN          LGT SNOW  28  27  96 E7        29.64R VSB 1   WCI  21
SALT LAKE CITY LGT SNOW  30  28  92 N13       29.66R VSB 1   WCI  20
TOOELE VALLEY  LGT SNOW  30  30 100 NE10      29.65S WCI  21
WENDOVER       CLOUDY    30  27  86 NE5       29.65R WCI  25
HEBER CITY     LGT SNOW  32  27  80 SW9G22    29.56R WCI  24
WEST JORDAN    CLOUDY    32  32 100 N9        29.66R WCI  24

$$

UTZ011>015-024>027-271600-

CENTRAL/NORTHEAST UTAH

CITY           SKY/WX    TMP DP  RH WIND       PRES   REMARKS
PROVO AIRPORT  CLOUDY    38  30  73 SW10      29.62R WCI  31
MOAB/CANYONLAN CLOUDY    42  25  50 S14       29.68R
DELTA          CLOUDY    36  30  80 S20G28    29.62S WCI  25
PRICE          CLOUDY    29  23  78 CALM      29.62R
ROOSEVELT      CLOUDY    27  19  74 W3        29.66R
VERNAL         CLOUDY    23  17  78 CALM      29.63S

$$

UTZ013>016-019>022-027-271600-

SOUTHERN UTAH

CITY           SKY/WX    TMP DP  RH WIND       PRES   REMARKS
BRYCE CANYON   CLOUDY    26  18  71 S16       29.70S WCI  14
CEDAR CITY     CLOUDY    35  24  64 S21G35    29.66S WCI  24
MILFORD        CLOUDY    37  28  70 S21       29.65R WCI  26
ST GEORGE      CLOUDY    46  30  53 SE14      29.77R
HANKSVILLE     MOSUNNY   43  23  45 SW20G26   29.71R
BLANDING       CLOUDY    34  24  67 S9        29.87R WCI  27

$$

REGIONAL REPORTS     COLORADO/ARIZONA

CITY           SKY/WX    TMP DP  RH WIND       PRES   REMARKS
CRAIG, CO      CLOUDY    34  19  54 S14       29.61F WCI  25
GRAND JUNCTION CLOUDY    40  25  55 S10G22    29.70R WCI  33
RIFLE, CO      CLOUDY    38  23  55 S10       29.68R WCI  31
MONTROSE, CO   MOSUNNY   33  11  39 E17       29.75F WCI  22
CORTEZ, CO     CLOUDY    36  24  62 SW6       29.84R WCI  31
COLORADO CITY  PTSUNNY   37  30  75 SE3       29.81S
PAGE, AZ       MOSUNNY   44  20  38 S6        29.77R
GRAND CANYON   CLOUDY    31  25  78 S17G26    29.85R WCI  19
KINGMAN, AZ    MOCLDY    39  19  44 SE5       29.83S
FLAGSTAFF, AZ  CLOUDY    30  26  85 SW22G29   29.88R WCI  17

$$

REGIONAL REPORTS    NEVADA/IDAHO/WYOMING

CITY           SKY/WX    TMP DP  RH WIND       PRES   REMARKS
LAS VEGAS, NV  MOCLDY    49  27  42 SW10G18   29.75R
ELY, NY        LGT SNOW  28  21  75 SW17      29.62R WCI  16
ELKO, NV       CLOUDY    25  19  78 SW12      29.66R WCI  14
POCATELLO, ID  FLURRIES  24  21  88 NE6       29.63R WCI  17
BURLEY, ID     FOG       26  23  88 E5        29.60R VSB 3/4 WCI  20
FORT BRIDGER,  SNOW      19  19 100 W3        29.58R VSB 1/2
EVANSTON, WY   SNOW      20  17  88 NW12      29.57R VSB 1/4 WCI   8
ROCK SPRINGS,  HVY SNOW  17  12  80 W13       29.57R VSB 1/4 WCI   4

$$



USA.gov is the U.S. government's official web portal to all federal, state and local government web resources and services.